TimeEST,TemperatureF,Dew PointF,Humidity,Sea Level PressureIn,VisibilityMPH,Wind Direction,Wind SpeedMPH,Gust SpeedMPH,PrecipitationIn,Events,Conditions,WindDirDegrees,DateUTC
12:53 AM,73.9,69.1,85,29.81,10.0,South,6.9,-,N/A,,Clear,170,2013-02-26 05:53:00
1:53 AM,73.9,69.1,85,29.79,10.0,SSE,6.9,-,N/A,,Clear,160,2013-02-26 06:53:00
2:53 AM,73.9,70.0,87,29.79,10.0,South,9.2,-,N/A,,Overcast,180,2013-02-26 07:53:00
3:53 AM,73.9,70.0,87,29.78,10.0,SSE,5.8,-,N/A,,Partly Cloudy,160,2013-02-26 08:53:00
4:53 AM,73.0,71.1,93,29.76,10.0,SSE,6.9,-,N/A,,Scattered Clouds,160,2013-02-26 09:53:00
5:53 AM,73.9,70.0,87,29.79,10.0,South,5.8,-,N/A,,Scattered Clouds,180,2013-02-26 10:53:00
6:53 AM,75.0,70.0,84,29.80,10.0,South,9.2,17.3,N/A,,Clear,180,2013-02-26 11:53:00
7:53 AM,75.9,70.0,82,29.82,10.0,South,9.2,19.6,N/A,,Mostly Cloudy,180,2013-02-26 12:53:00
8:11 AM,75.2,69.8,83,29.82,10.0,South,10.4,19.6,N/A,,Overcast,190,2013-02-26 13:11:00
8:25 AM,77.0,69.8,78,29.83,10.0,South,11.5,20.7,N/A,,Overcast,180,2013-02-26 13:25:00
8:53 AM,78.1,70.0,76,29.84,10.0,South,13.8,21.9,N/A,,Mostly Cloudy,180,2013-02-26 13:53:00
9:53 AM,80.1,70.0,71,29.85,10.0,South,19.6,31.1,N/A,,Mostly Cloudy,180,2013-02-26 14:53:00
10:53 AM,82.0,71.1,69,29.87,10.0,South,19.6,32.2,N/A,,Scattered Clouds,190,2013-02-26 15:53:00
11:53 AM,82.9,71.1,67,29.86,10.0,South,15.0,26.5,N/A,,Scattered Clouds,190,2013-02-26 16:53:00
12:53 PM,82.0,71.1,69,29.83,10.0,South,13.8,32.2,N/A,,Partly Cloudy,190,2013-02-26 17:53:00
1:53 PM,82.9,71.1,67,29.82,10.0,South,17.3,27.6,N/A,,Mostly Cloudy,190,2013-02-26 18:53:00
2:24 PM,80.6,71.6,74,29.80,10.0,SSW,19.6,33.4,N/A,,Mostly Cloudy,210,2013-02-26 19:24:00
2:53 PM,80.1,71.1,74,29.81,10.0,SSW,13.8,27.6,N/A,,Overcast,210,2013-02-26 19:53:00
3:12 PM,78.8,71.6,78,29.82,10.0,SSW,17.3,26.5,N/A,,Overcast,200,2013-02-26 20:12:00
3:48 PM,78.8,71.6,78,29.81,10.0,SSW,13.8,20.7,N/A,,Overcast,210,2013-02-26 20:48:00
3:53 PM,79.0,72.0,79,29.82,10.0,SW,13.8,20.7,N/A,,Overcast,220,2013-02-26 20:53:00
4:19 PM,78.8,71.6,78,29.82,10.0,SSW,15.0,21.9,N/A,,Overcast,210,2013-02-26 21:19:00
4:53 PM,75.0,71.1,87,29.83,9.0,West,17.3,-,0.00,Rain,Light Rain,280,2013-02-26 21:53:00
5:01 PM,73.4,69.8,88,29.82,8.0,West,11.5,-,0.00,Rain,Light Rain,270,2013-02-26 22:01:00
5:12 PM,73.4,71.6,94,29.82,3.0,West,9.2,-,0.01,Rain,Light Rain,280,2013-02-26 22:12:00
5:28 PM,73.4,71.6,94,29.82,9.0,West,6.9,-,0.01,,Overcast,280,2013-02-26 22:28:00
5:41 PM,73.4,71.6,94,29.83,10.0,West,8.1,-,0.01,,Overcast,260,2013-02-26 22:41:00
5:53 PM,73.0,71.1,93,29.83,10.0,SW,4.6,-,0.01,,Overcast,230,2013-02-26 22:53:00
6:14 PM,73.4,71.6,94,29.83,10.0,WSW,5.8,-,N/A,,Overcast,240,2013-02-26 23:14:00
6:44 PM,73.4,71.6,94,29.84,10.0,WSW,6.9,-,N/A,,Overcast,250,2013-02-26 23:44:00
6:51 PM,73.4,71.6,94,29.84,10.0,WSW,4.6,-,N/A,,Overcast,240,2013-02-26 23:51:00
6:53 PM,73.0,71.1,93,29.85,10.0,WSW,3.5,-,N/A,,Overcast,240,2013-02-26 23:53:00
7:28 PM,73.4,71.6,94,29.85,10.0,WSW,4.6,-,N/A,,Overcast,240,2013-02-27 00:28:00
7:48 PM,73.4,69.8,88,29.86,10.0,West,9.2,-,N/A,,Overcast,270,2013-02-27 00:48:00
7:53 PM,73.0,69.1,87,29.87,10.0,West,9.2,-,N/A,,Overcast,280,2013-02-27 00:53:00
8:02 PM,73.4,68.0,83,29.87,10.0,West,6.9,-,N/A,,Overcast,280,2013-02-27 01:02:00
8:53 PM,71.1,63.0,75,29.89,10.0,NW,6.9,-,N/A,,Scattered Clouds,310,2013-02-27 01:53:00
9:53 PM,71.1,63.0,75,29.90,10.0,WNW,4.6,-,N/A,,Clear,300,2013-02-27 02:53:00
10:53 PM,69.1,64.0,84,29.91,10.0,Calm,Calm,-,N/A,,Clear,0,2013-02-27 03:53:00
11:53 PM,69.1,64.0,84,29.91,10.0,Calm,Calm,-,N/A,,Clear,0,2013-02-27 04:53:00